Location: Los Ranchitos
(37.9930°N, 122.5425°W)
Time: 03:01:57
(UTC+00:00)

Cosmos 2233 Rocket - Pass Details

Date: 21 September 2020
Orbit: 953 x 991 km, 82.9° (Epoch: 27 October)

Event Time Altitude Azimuth Distance (km) Brightness Sun altitude
Rises 02:24:55 0° 183° (S) 3,669 7.0 -3.9°
Reaches altitude 10° 02:27:25 10° 183° (S) 2,720 6.4 -4.4°
Maximum altitude 02:33:40 86° 94° (E) 979 4.0 -5.6°
Drops below altitude 10° 02:39:53 10° 8° (N) 2,710 6.3 -6.9°
Sets 02:42:23 0° 8° (N) 3,655 7.0 -7.4°
